Hays, KS

9:04 AM CST on December 15, 2019 (GMT -0600)
Hays Regional

Weather History for KHYS - July, 2019

Change the Weather History Date:

Sunday, July 21, 2019

  Actual Average Record
Temperature  
Mean Temperature 78 °F -  
Max Temperature 86 °F 90 °F 107 °F (2017)
Min Temperature 68 °F 65 °F 60 °F (2000)
Cooling Degree Days 12    
Growing Degree Days 28 (Base 50)    
Moisture  
Dew Point 67 °F    
Average Humidity 74    
Maximum Humidity 94    
Minimum Humidity 51    
Precipitation  
Precipitation 0.00 in - - ()
Sea Level Pressure  
Sea Level Pressure 29.96 in    
Wind  
Wind Speed 14 mph (NNE)    
Max Wind Speed 23 mph    
Max Gust Speed 33 mph    
Visibility 10 miles    
Events      
Averages and records for this station are not official NWS values.
T = Trace of Precipitation, MM = Missing Value Source: NWS Daily Summary

Daily Weather History Graph

Daily Weather History Graph

Search for Another Location

Airport or City:

Astronomy

Jul. 21, 2019 Rise Set
Actual Time 6:28 AM CDT 8:57 PM CDT
Civil Twilight 5:58 AM CDT 9:28 PM CDT
Nautical Twilight 5:20 AM CDT 10:06 PM CDT
Astronomical Twilight 4:37 AM CDT 10:48 PM CDT
Moon 11:55 PM CDT (7/21) 10:48 AM CDT (7/21)
Length of Visible Light 15h 30m
Length of Day
14h 29m
Waning Gibbous, 80% of the Moon is Illuminated
Jul 21
Waning Gibbous
Jul 24
Last Quarter
Jul 31
New
Aug 7
First Quarter
Aug 15
Full

Hourly Weather History & Observations

Time (CDT) Temp. Heat Index Dew Point Humidity Pressure Visibility Wind Dir Wind Speed Gust Speed Precip Events Conditions
12:56 AM 82.9 °F 84.6 °F 64.9 °F 54% 29.83 in 10.0 mi SW 4.6 mph - N/A   Partly Cloudy
1:56 AM 82.9 °F 84.4 °F 64.0 °F 53% 29.83 in 10.0 mi West 21.9 mph 33.4 mph N/A   Clear
2:56 AM 81.0 °F 85.2 °F 72.0 °F 74% 29.80 in 10.0 mi NW 23.0 mph 29.9 mph N/A   Clear
3:56 AM 77.0 °F - 71.1 °F 82% 29.81 in 10.0 mi NNW 15.0 mph - N/A   Clear
4:56 AM 73.9 °F - 71.1 °F 91% 29.83 in 10.0 mi North 8.1 mph - N/A   Clear
5:16 AM 73.4 °F - 71.6 °F 94% 29.91 in 10.0 mi NNW 6.9 mph - N/A   Mostly Cloudy
5:56 AM 73.9 °F - 71.1 °F 91% 29.88 in 10.0 mi North 12.7 mph - N/A   Overcast
6:56 AM 73.9 °F - 70.0 °F 87% 29.92 in 10.0 mi North 17.3 mph 26.5 mph N/A   Overcast
7:28 AM 71.6 °F - 66.2 °F 83% 29.99 in 10.0 mi NNE 12.7 mph - N/A   Scattered Clouds
7:56 AM 72.0 °F - 64.0 °F 76% 29.94 in 10.0 mi NNE 8.1 mph - N/A   Clear
8:56 AM 71.1 °F - 64.0 °F 78% 29.93 in 10.0 mi NNE 23.0 mph 27.6 mph N/A   Clear
9:49 AM 73.4 °F - 66.2 °F 78% 29.99 in 10.0 mi NE 20.7 mph 29.9 mph N/A   Mostly Cloudy
9:56 AM 73.0 °F - 66.0 °F 79% 29.94 in 10.0 mi NE 23.0 mph - N/A   Mostly Cloudy
10:17 AM 71.6 °F - 66.2 °F 83% 30.01 in 10.0 mi NNE 19.6 mph - N/A   Overcast
10:56 AM 73.9 °F - 68.0 °F 82% 29.96 in 10.0 mi NNE 16.1 mph - N/A   Overcast
11:12 AM 75.2 °F - 68.0 °F 78% 30.02 in 10.0 mi NE 16.1 mph - N/A   Overcast
11:56 AM 77.0 °F - 70.0 °F 79% 29.98 in 10.0 mi NE 13.8 mph - N/A   Overcast
12:56 PM 78.1 °F - 70.0 °F 76% 29.98 in 10.0 mi NE 15.0 mph - N/A   Mostly Cloudy
1:56 PM 80.1 °F 82.9 °F 69.1 °F 69% 29.98 in 10.0 mi NE 12.7 mph - N/A   Mostly Cloudy
2:56 PM 80.1 °F 82.7 °F 68.0 °F 67% 29.98 in 10.0 mi ENE 8.1 mph - N/A   Mostly Cloudy
3:36 PM 82.4 °F 86.3 °F 69.8 °F 66% 30.03 in 10.0 mi NNE 12.7 mph 17.3 mph N/A   Mostly Cloudy
3:56 PM 82.9 °F 85.4 °F 66.9 °F 58% 29.97 in 10.0 mi North 9.2 mph - N/A   Scattered Clouds
4:56 PM 86.0 °F 88.2 °F 66.0 °F 51% 29.96 in 10.0 mi North 8.1 mph - N/A   Clear
5:56 PM 84.0 °F 86.3 °F 66.0 °F 55% 29.98 in 10.0 mi NNE 12.7 mph - N/A   Clear
6:56 PM 82.9 °F 85.4 °F 66.9 °F 58% 29.99 in 10.0 mi NE 20.7 mph 25.3 mph N/A   Mostly Cloudy
7:56 PM 78.1 °F - 66.0 °F 66% 30.02 in 10.0 mi ENE 23.0 mph - N/A   Scattered Clouds
8:56 PM 73.9 °F - 64.9 °F 73% 30.08 in 10.0 mi NE 17.3 mph - N/A   Scattered Clouds
9:56 PM 72.0 °F - 64.9 °F 78% 30.11 in 10.0 mi NE 11.5 mph - N/A   Scattered Clouds
10:56 PM 69.1 °F - 64.0 °F 84% 30.12 in 10.0 mi NNE 6.9 mph - N/A   Clear
11:56 PM 68.0 °F - 64.0 °F 87% 30.13 in 10.0 mi North 8.1 mph - N/A   Clear